DECAYED

STARLINK-32576, 62318 (Decayed)

Orbit data source: Space-Track

STARLINK-32576, 62318 was a payload satellite owned by SpaceX/Seattle (US) in LEO that was launched on Fri, 13 Dec 2024 UTC via an FALCON 9 launch vehicle from the Air Force Western Test Range (AFWTR). Payload-class satellites include a variety of spacecraft equipped with specific instruments for various scientific and technological missions. These include communications satellites like Starlink; space stations such as the ISS; scientific satellites like the Hubble; Earth observation satellites from companies like Planet Labs, Umbra, and HawkEye 360; GPS; miniature CubeSats for education and research; and military/defense satellites.

Not visible in the next 10 days
Identifier
62318, 2024-239T
Orbit
Decayed
Country
Flag of USUS
Related business
Manufacturer
SpaceX/Seattle
Mission
Decayed Commercial Communications
Bus & Motor
STARLINK V2M, Unknown motor
Mass
730 kg wet, ~700 kg dry
Launch date (UTC)
2024-12-13 (2 years ago)
Launch vehicle
FALCON 9
Launch site
Air Force Western Test Range (AFWTR)
Object type
Payload
Rocket body
Debris
Shape & HBR
Box + 2 Pan, 17.7 m
Radar Cross Section
33.884 m², Large (>1 m²)

Expand to show TLE details & history
Last TLE update: 11 months ago

TLE from 11 months ago
0 STARLINK-32576
1 62318U 24239T   25200.44941007  .21308689  11973-4  46790-2 0  9998
2 62318  53.1223 180.5095 0006381 204.5211 296.6335 16.29655350 33900
Epoch: 2025-07-19T10:47Z
TLE epoch observation values (Epoch: 2025-07-19T10:47:09.030Z)
Latitude
30.25928°
Longitude
-124.56013°
Altitude
193.328 km
Speed
7.796 km/s
True Right ascension
22h 18m 51s
True Declination
30° 05' 49"
Sunlit
Object was in full shadow at epoch
Visualization orbit readout
Latitude
Unknown
Longitude
Unknown
Altitude
Unknown
Speed
Unknown
Apparent Right ascension
Unknown
Apparent Declination
Unknown
Sunlit
N/A
Visualization observer readout
Local Sidereal Time
07:11:45
Azimuth
Unknown
Elevation
Unknown
Doppler factor
Unknown
Orbital elements
Apogee altitude
197.933 km
Perigee altitude
189.546 km
Semi-major axis
6,571.877 km
Eccentricity
0.00064
Inclination
53.1223°
RAAN
180.5095°
Arg. of periapsis
204.5211°
True anomaly
296.56811°
Mean anomaly
296.6335°
Eccentric anomaly
296.60081°
Mean motion
4.07389 °/min
Orbital period
88.37 mins
BSTAR
0.004679
Loading maneuver chart data...
Computing Atmospheric mass density...
Loading historical data...
Loading historical data...
Loading historical data...
Loading historical data...
Loading historical data...
Loading historical data...
Loading historical data...

Documentation

Showing up to 5 results
|